CST,Max TemperatureF,Mean TemperatureF,Min TemperatureF,Max Dew PointF,MeanDew PointF,Min DewpointF,Max Humidity, Mean Humidity, Min Humidity, Max Sea Level PressureIn, Mean Sea Level PressureIn, Min Sea Level PressureIn, Max VisibilityMiles, Mean VisibilityMiles, Min VisibilityMiles, Max Wind SpeedMPH, Mean Wind SpeedMPH, Max Gust SpeedMPH,PrecipitationIn, CloudCover, Events, WindDirDegrees
2010-11-1,81,72,62,68,64,53,93,78,62,30.03,30.00,29.96,10,10,6,13,7,17,0.00,5,,229
2010-11-2,64,59,54,58,54,52,100,82,63,30.02,29.98,29.93,10,7,2,18,9,29,0.79,8,Rain-Thunderstorm,334
2010-11-3,57,54,51,56,53,49,100,93,86,30.08,30.00,29.92,10,5,1,17,10,23,0.10,7,Rain,356
2010-11-4,64,55,46,46,36,29,83,56,29,30.19,30.13,30.08,10,10,10,24,12,33,0.00,0,,336
2010-11-5,61,49,37,36,30,21,82,52,22,30.31,30.24,30.16,10,10,10,18,6,23,0.00,0,,331
2010-11-6,65,51,36,35,30,20,85,52,18,30.44,30.37,30.30,10,10,10,10,2,12,0.00,0,,120
2010-11-7,69,54,39,41,34,27,79,50,20,30.43,30.34,30.22,10,10,10,15,6,18,0.00,0,,169
2010-11-8,74,59,44,52,46,37,83,62,41,30.19,30.10,30.01,10,10,10,15,8,20,0.00,0,,174
2010-11-9,76,63,49,57,53,48,100,72,43,30.01,29.95,29.88,10,9,3,20,10,25,0.00,1,,166
2010-11-10,79,69,58,63,61,57,100,76,52,30.09,30.01,29.94,10,8,2,16,9,22,0.00,6,,161
2010-11-11,77,70,62,65,62,59,93,77,60,30.22,30.16,30.09,10,10,9,16,8,20,T,7,Rain,139
2010-11-12,77,66,55,66,61,50,93,77,60,30.21,30.14,30.06,10,9,1,21,10,28,0.47,7,Rain-Thunderstorm,170
2010-11-13,58,50,41,49,42,40,89,72,55,30.28,30.20,30.15,10,10,10,17,7,23,T,5,,331
2010-11-14,62,49,36,42,39,36,93,66,39,30.16,30.06,29.93,10,10,9,13,4,16,0.00,2,,114
2010-11-15,58,52,45,54,49,41,93,85,77,29.90,29.76,29.63,10,9,2,20,6,24,0.04,7,Rain,113
2010-11-16,62,55,47,54,48,39,93,70,46,29.94,29.81,29.70,10,8,2,20,8,25,0.05,6,Rain,288
2010-11-17,72,58,44,51,44,39,89,65,40,30.25,30.02,29.91,10,10,10,26,13,33,0.00,1,,225
2010-11-18,59,51,42,42,40,38,89,70,51,30.41,30.34,30.26,10,10,7,22,7,31,0.00,3,,349
2010-11-19,64,50,36,46,41,36,100,74,48,30.29,30.22,30.13,10,6,0,15,8,21,0.00,0,Fog,160
2010-11-20,72,60,47,58,53,46,100,81,61,30.20,30.13,30.06,10,7,2,18,11,24,0.00,6,,167
2010-11-21,80,71,62,64,61,58,93,71,49,30.09,30.03,29.96,10,10,9,26,15,35,0.00,6,,179
2010-11-22,78,73,67,68,65,62,90,76,62,30.01,29.97,29.89,10,10,9,22,13,29,T,7,,184
2010-11-23,82,76,69,68,66,63,97,74,51,30.06,29.99,29.94,10,9,6,17,9,24,0.00,4,,189
2010-11-24,82,77,71,67,66,64,90,74,58,29.93,29.83,29.71,10,10,10,28,16,35,0.00,7,,181
2010-11-25,74,56,38,68,52,26,93,76,59,30.14,29.87,29.72,10,10,8,24,12,29,0.07,7,Rain,286
2010-11-26,52,42,32,29,23,15,82,53,24,30.30,30.26,30.16,10,8,2,14,7,17,0.00,1,,2
2010-11-27,61,46,30,34,25,13,89,52,15,30.32,30.23,30.15,10,9,3,7,2,12,0.00,0,,176
2010-11-28,63,50,36,51,40,28,82,64,46,30.13,29.98,29.83,10,10,10,22,11,28,0.00,4,,154
2010-11-29,72,62,51,65,56,31,100,67,33,29.96,29.78,29.70,10,7,0,18,9,24,0.50,7,Fog-Rain,207
2010-11-30,51,41,31,34,24,19,69,50,31,30.35,30.22,30.00,10,10,10,23,12,30,T,2,Rain,309